Weather Roundup
Issued by NWS Chicago, IL

Home | Current Version | Previous Version | Text Only | Print | Product List | Glossary On
Versions: 1 2 3 4 5 6 7 8 9 10 11 12 13 14 15 16 17 18 19 20 21 22 23 24 25 26 27 28 29 30 31 32 33 34 35 36 37 38 39 40 41 42 43 44 45 46 47 48 49 50
000
NZUS59 KLOT 312312
HRRLOT

CHICAGO AREA WEATHER ROUNDUP
NATIONAL WEATHER SERVICE CHICAGO/ROMEOVILLE IL
600 PM CDT FRI JUL 31 2015

NOTE: "FAIR" INDICATES FEW OR NO CLOUDS BELOW 12,000 FEET WITH NO
SIGNIFICANT WEATHER AND/OR OBSTRUCTIONS TO VISIBILITY.

* THESE STATIONS ARE NOT UNDER NWS QUALITY CONTROL. THEY ALSO MAY NOT
  REPORT WEATHER SUCH AS PRECIPITATION OR FOG.

ILZ005-006-012>014-019>023-010000-
NORTHEAST ILLINOIS

CITY           SKY/WX    TMP DP  RH WIND       PRES   REMARKS
OHARE          MOSUNNY   84  49  29 NW18G25   29.93S HX  82
MIDWAY         MOSUNNY   86  46  24 NW16G26   29.93S HX  83
AURORA         SUNNY     82  51  34 NW15G23   29.96S HX  81
LANSING*       SUNNY     84  47  28 NW13G22   29.94S HX  82
JOLIET*        SUNNY     85  54  34 NW12G17   29.95F HX  83
WAUKEGAN       SUNNY     80  49  33 W10G20    29.93S
DUPAGE AIRPORT SUNNY     83  47  28 NW17G25   29.95S HX  81
WHEELING       SUNNY     83  46  27 NW17G23   29.94F HX  81
KANKAKEE*      SUNNY     85  56  37 W9G21     29.96S HX  83
MORRIS*        SUNNY     82  57  42 NW14G22   29.95S HX  82
LEWIS AIRPORT* SUNNY     83  50  31 NW14G25   29.95F HX  81
NORTHERLY IS     N/A     83  45  26 W18         N/A  HX  81
$$

WIZ051-052-058>065-066-070>072-010000-
SOUTHEAST WISCONSIN

CITY           SKY/WX    TMP DP  RH WIND       PRES   REMARKS
MILWAUKEE      MOSUNNY   83  46  27 W20G25    29.92F HX  81
KENOSHA*       SUNNY     81  49  32 NW15G23   29.93F HX  80
RACINE*        SUNNY     82  49  31 NW12G22   29.94S HX  81
BURLINGTON     MOSUNNY   80  47  31 NW10      29.94F
WAUKESHA       MOSUNNY   77  48  36 NW15      29.95S
WEST BEND      MOSUNNY   79  45  29 W18G26    29.92S
$$

INZ001>003-010>013-019-020-010000-
NORTHWEST INDIANA

CITY           SKY/WX    TMP DP  RH WIND       PRES   REMARKS
GARY*          SUNNY     86  50  28 W14G29    29.93F HX  84
MICHIGAN CITY* NOT AVBL
RENSSELAER*    NOT AVBL
VALPARAISO     SUNNY     82  55  39 N9        29.94S HX  81
$$

LMZ740>746-010000-
SOUTHERN LAKE MICHIGAN

STATION/POSITION TIME  SKY/WX   TEMP WIND        PRES    VSBY
                                AIR  DIR/SP/G
                 (UTC)          (F)  (DEG/KT/KT) (MB)    (MI)
HARRISON CRIB    2200            81  310/ 20/ 24   N/A
BURNHAM HARBOR   2300            83  300/ 12/ 20   N/A
CALUMET HARBOR   2200            85  280/  7/ 19   N/A
BURNS HARBOR     2200            78  330/  9/ 12 1013.9S
MICHIGAN CITY    2200            78  310/ 15/ 17   N/A
$$

ABBREVIATIONS USED IN REMARKS
   TC - TEMPERATURE IN CELSIUS
  WCI - WIND CHILL INDEX
   HX - HEAT INDEX
  VSB - VISIBILITY
$$


USA.gov is the U.S. government's official web portal to all federal, state and local government web resources and services.